Regional Weather Roundup
Issued by NWS Northern Indiana

Home | Current Version | Previous Version | Graphics & Text | Print | Product List | Glossary On
Versions: 1 2 3 4 5 6 7 8 9 10 11 12 13 14 15 16 17 18 19 20 21 22 23 24 25 26 27 28 29 30 31 32 33 34 35 36 37 38 39 40 41 42 43 44 45 46 47 48 49 50
000
ASUS43 KIWX 060300
RWRIWX

KIWX WEATHER ROUNDUP
NATIONAL WEATHER SERVICE NORTHERN INDIANA
1100 PM EDT TUE MAY 05 2015

NOTE: "FAIR" INDICATES FEW OR NO CLOUDS BELOW 12,000 FEET WITH NO
SIGNIFICANT WEATHER AND/OR OBSTRUCTIONS TO VISIBILITY.

* THESE STATIONS ARE NOT UNDER NWS QUALITY CONTROL. THEY ALSO MAY NOT
  REPORT WEATHER SUCH AS PRECIPITATION OR FOG.

INZ001>027-060400-
NORTHERN INDIANA

CITY           SKY/WX    TMP DP  RH WIND       PRES   REMARKS
GARY*          CLOUDY    48 N/A N/A CALM      30.20F FOG
SOUTH BEND     CLOUDY    55  52  89 E10       30.24R
GOSHEN         CLOUDY    56  55  97 E7        30.23R FOG
ANGOLA*        CLOUDY    52  39  62 E7        30.23S
FORT WAYNE     CLOUDY    56  54  93 E13       30.23R FOG
PERU/GRISSOM   CLOUDY    64  61  88 NE8       30.19R

$$
INZ028>050-060400-
CENTRAL INDIANA

CITY           SKY/WX    TMP DP  RH WIND       PRES   REMARKS
LAFAYETTE      PTCLDY    67  63  87 CALM      30.16R
KOKOMO*        CLOUDY    63  61  94 NE13      30.20R
MUNCIE*        PTCLDY    70  54  56 S6        30.18R
INDIANAPOLIS   MOCLDY    70  52  52 S6        30.17R

$$
MIZ043>046-050>051-056>058-064>065-071>073-077>080-060400-
SOUTHWEST LOWER MICHIGAN

CITY           SKY/WX    TMP DP  RH WIND       PRES   REMARKS
BATTLE CREEK   RAIN      51  49  92 E6        30.26R FOG
BENTON HARBOR  CLOUDY    52  51  97 E7        30.23R
COLDWATER*     CLOUDY    51  50  95 E7        30.24R FOG
HILLSDALE*     CLOUDY    51  51 100 E9        30.24F FOG
HOLLAND        CLOUDY    53  50  89 E7        30.25S
GRAND RAPIDS   CLOUDY    53  47  79 E8        30.26S
KALAMAZOO      LGT RAIN  52  49  89 E6        30.25S FOG
STURGIS*       CLOUDY    54  52  94 CALM      30.25R FOG
THREE RIVERS*  CLOUDY    52  50  92 CALM      30.26R

$$
OHZ001>008-015>018-024>025-060400-
NORTHWEST OHIO

CITY           SKY/WX    TMP DP  RH WIND       PRES   REMARKS
DEFIANCE       MOCLDY    53  49  86 E8        30.25R
FINDLAY        CLOUDY    54  51  90 NE12      30.23S FOG
TOLEDO EXPRESS CLOUDY    52  50  93 E8        30.25F FOG
TOLEDO METCALF LGT RAIN  52  49  89 E7        30.26F
LIMA           CLEAR     54  51  90 NE9       30.23R FOG

$$
AND FOR LAKE MICHIGAN COASTAL AND OPEN LAKE BUOY OBSERVATIONS

STATION/POSITION TEMP    WIND        PRES    VSBY  WAVE
                 AIR SEA DIR/SP/G                  HT/PER
                 (F)     (DEG/KT/KT) (MB)    (MI)  (FT/S)
CALUMET HARBOR    46     340/  7/  9   N/A
MICHIGAN CITY     57      50/  4/  5   N/A
BURNS HARBOR      50     330/  3/  5 1023.0F
SAINT JOSEPH      54      60/  2/  7 1023.7R
4 MI NW BRIDGMAN  53 50  110/  6/  8   N/A           1/ 3
MICHIGAN CITY     52 50   80/  4/  6   N/A           1/ 4

$$
&&


USA.gov is the U.S. government's official web portal to all federal, state and local government web resources and services.